GW3011 Weather Reports


time (UTC)temp
F
wind
direction
speed
knots
gust
knots
rain 1hr
in
rain 24hr
in
rain mn
in
humidity
%
barometer
mb
20260904032352 81 123 0.0 0.0 0.00 0.00 0.00 79 1011.0
20260904031846 81 112 0.0 0.0 0.00 0.00 0.00 79 1011.3
20260904031342 81 75 0.0 0.0 0.00 0.00 0.00 78 1011.0
20260904030838 81 54 0.0 0.0 0.00 0.00 0.00 78 1011.2
20260904030333 82 91 0.0 0.0 0.00 0.00 0.00 78 1011.4
20260904025829 82 98 0.0 0.0 0.00 0.19 0.19 77 1011.5
20260904025325 82 4 0.0 0.0 0.00 0.19 0.19 77 1011.7
20260904024824 81 120 0.0 0.0 0.00 0.19 0.19 78 1011.6
20260904024319 81 114 0.0 0.0 0.00 0.19 0.19 78 1011.4
20260904023816 81 49 0.0 0.0 0.00 0.19 0.19 78 1011.6
20260904023312 81 78 0.0 0.0 0.00 0.19 0.19 78 1011.7
20260904022811 81 88 0.0 0.0 0.00 0.19 0.19 78 1011.5
20260904022308 82 76 0.0 0.0 0.00 0.19 0.19 78 1011.6
20260904021805 82 53 0.0 0.0 0.00 0.19 0.19 77 1011.8
20260904021259 82 102 0.0 0.0 0.00 0.19 0.19 76 1012.0
20260904020754 82 80 0.0 0.0 0.00 0.19 0.19 76 1012.2
20260904020254 82 124 0.0 0.0 0.00 0.19 0.19 76 1012.1
20260904015753 82 101 0.0 0.0 0.00 0.19 0.19 76 1012.1
20260904015248 82 125 0.0 0.0 0.00 0.19 0.19 76 1012.3
20260904014746 82 115 0.0 0.0 0.00 0.19 0.19 77 1012.2
20260904014242 82 120 0.0 0.0 0.00 0.19 0.19 77 1012.3
20260904013738 82 107 0.0 0.0 0.00 0.19 0.19 78 1012.2
20260904013234 82 104 0.0 0.0 0.00 0.19 0.19 78 1012.1
20260904012730 82 80 0.0 0.0 0.00 0.19 0.19 77 1012.2
20260904012229 82 87 0.0 0.0 0.00 0.19 0.19 76 1012.1
20260904011728 82 96 0.0 0.0 0.00 0.19 0.19 75 1011.9
20260904011224 82 89 0.0 0.0 0.00 0.19 0.19 74 1012.2
20260904010719 82 77 0.0 0.0 0.00 0.19 0.19 74 1011.7
20260904010215 82 109 0.0 0.0 0.00 0.19 0.19 75 1011.9
20260904005710 82 106 0.0 0.0 0.00 0.19 0.19 74 1011.9
20260904005207 82 96 0.0 0.0 0.00 0.19 0.19 74 1012.2
20260904004706 82 74 0.0 0.0 0.00 0.19 0.19 74 1011.7
20260904004201 82 99 0.0 0.0 0.00 0.19 0.19 74 1011.6
20260904003656 82 80 0.0 0.0 0.00 0.19 0.19 73 1011.6
20260904003153 83 101 0.0 0.0 0.00 0.19 0.19 73 1012.1
20260904002648 83 76 0.0 0.0 0.00 0.19 0.19 72 1012.0
20260904002143 84 94 0.0 0.0 0.00 0.19 0.19 71 1012.0
20260904001639 84 104 0.0 0.0 0.00 0.19 0.19 71 1011.9
20260904001137 84 96 0.0 0.0 0.00 0.19 0.19 70 1011.9
20260904000633 84 125 0.0 0.0 0.00 0.19 0.19 70 1011.8
20260904000128 84 101 0.0 0.0 0.00 0.19 0.19 70 1011.7
20260903235628 84 125 0.0 0.0 0.00 0.19 0.19 71 1011.5
20260903235124 84 118 0.0 0.0 0.00 0.19 0.19 70 1011.5
20260903234619 84 89 0.0 0.0 0.00 0.19 0.19 70 1011.3
20260903234115 84 115 0.0 0.0 0.00 0.19 0.19 69 1011.3
20260903233611 84 116 0.0 0.0 0.00 0.19 0.19 70 1011.4
20260903233106 84 107 0.0 0.0 0.00 0.19 0.19 70 1011.3
20260903232601 85 104 0.0 0.0 0.00 0.19 0.19 69 1011.3
20260903232056 85 98 0.0 0.0 0.00 0.19 0.19 68 1011.2
20260903231545 85 128 0.0 0.0 0.00 0.19 0.19 68 1011.3
20260903231045 85 139 0.0 0.0 0.00 0.19 0.19 67 1011.2
20260903230541 85 52 0.0 0.0 0.00 0.19 0.19 67 1011.5
20260903230039 85 186 0.0 0.0 0.00 0.19 0.19 67 1011.3
20260903225537 86 131 0.0 0.0 0.00 0.19 0.19 67 1011.4
20260903225033 86 125 0.0 0.0 0.00 0.19 0.19 66 1011.6
20260903224524 86 94 0.0 0.0 0.00 0.19 0.19 66 1011.5
20260903224020 86 147 0.0 0.0 0.00 0.19 0.19 66 1011.5
20260903223519 86 97 0.0 0.0 0.00 0.19 0.19 67 1011.4
20260903223018 86 115 0.0 0.0 0.00 0.19 0.19 67 1011.6
20260903222514 86 129 0.0 0.0 0.00 0.19 0.19 67 1011.6
20260903222012 86 139 0.0 0.0 0.00 0.19 0.19 67 1011.5
20260903221508 86 90 0.0 0.0 0.00 0.19 0.19 65 1011.5
20260903221005 87 115 0.0 0.0 0.00 0.19 0.19 65 1011.5
20260903220505 87 178 0.0 0.0 0.00 0.19 0.19 64 1011.3
20260903220003 86 102 0.0 0.0 0.00 0.19 0.19 65 1011.4
20260903215459 87 123 0.0 0.0 0.00 0.19 0.19 65 1011.3
20260903214957 87 159 0.0 0.0 0.00 0.19 0.19 64 1011.3
20260903214452 87 113 0.0 0.0 0.00 0.19 0.19 64 1011.2
20260903213947 87 105 0.0 0.0 0.00 0.19 0.19 64 1011.2
20260903213443 86 41 0.0 0.0 0.00 0.19 0.19 65 1011.2
20260903212938 87 130 0.0 0.0 0.00 0.19 0.19 64 1011.3
20260903212434 88 115 0.0 0.0 0.00 0.19 0.19 64 1011.4
20260903211928 87 129 0.0 0.0 0.00 0.19 0.19 64 1011.5
20260903211424 87 125 0.0 0.0 0.00 0.19 0.19 65 1011.3
20260903210920 86 108 0.0 0.0 0.00 0.19 0.19 65 1011.3
20260903210419 87 117 0.0 0.0 0.00 0.19 0.19 66 1011.4
20260903205915 87 58 0.0 0.0 0.00 0.19 0.19 64 1011.5
20260903205414 87 167 0.0 0.0 0.00 0.19 0.19 62 1011.5
20260903204909 87 104 0.0 0.0 0.00 0.19 0.19 63 1011.5
20260903204405 89 116 0.0 0.0 0.00 0.19 0.19 62 1011.4
20260903203901 89 124 0.0 0.0 0.00 0.19 0.19 61 1011.5
20260903203356 89 111 0.0 0.0 0.00 0.19 0.19 61 1011.4
20260903202855 89 104 0.0 0.0 0.00 0.19 0.19 60 1011.3
20260903202352 87 89 0.0 0.0 0.00 0.19 0.19 62 1011.3
20260903201851 88 108 0.0 0.0 0.00 0.19 0.19 62 1011.4
20260903201347 89 114 0.0 0.0 0.00 0.19 0.19 61 1011.2
20260903200845 89 86 0.0 0.0 0.00 0.19 0.19 62 1011.4
20260903200341 89 155 0.0 0.0 0.00 0.19 0.19 61 1011.3
20260903195836 88 88 0.0 0.0 0.00 0.19 0.19 62 1011.8
20260903195332 89 141 0.0 0.0 0.00 0.19 0.19 60 1011.7
20260903194826 88 178 0.0 0.0 0.00 0.19 0.19 62 1011.7
20260903194322 88 184 0.0 0.0 0.00 0.19 0.19 61 1011.7
20260903193818 89 73 0.0 0.0 0.00 0.19 0.19 61 1011.8
20260903193314 89 110 0.0 2.6 0.00 0.19 0.19 61 1011.7
20260903192809 87 125 0.0 0.9 0.00 0.19 0.19 63 1012.0
20260903192306 87 195 0.0 0.0 0.00 0.19 0.19 64 1011.9
20260903191800 86 212 0.0 0.0 0.00 0.19 0.19 64 1011.9
20260903191256 87 134 2.6 6.1 0.00 0.19 0.19 64 1012.0
20260903190750 86 119 3.5 6.1 0.00 0.19 0.19 65 1012.2
20260903190245 86 158 2.6 6.1 0.00 0.19 0.19 65 1012.2
20260903185740 87 187 0.9 1.7 0.00 0.19 0.19 65 1012.1
20260903185239 86 91 1.7 5.2 0.00 0.19 0.19 64 1012.3
20260903184736 86 207 0.0 0.9 0.00 0.19 0.19 65 1012.4
20260903184231 86 90 3.5 6.1 0.00 0.19 0.19 65 1012.4
20260903183726 86 181 0.0 0.0 0.00 0.19 0.19 65 1012.3
20260903183215 86 84 2.6 6.1 0.00 0.19 0.19 65 1012.6
20260903182713 85 11 1.7 5.2 0.00 0.19 0.19 67 1012.6
20260903182209 86 137 4.3 6.1 0.00 0.19 0.19 67 1012.4
20260903181707 85 107 0.0 0.9 0.00 0.19 0.19 67 1012.4
20260903181156 85 34 1.7 5.2 0.00 0.19 0.19 68 1012.4
20260903180653 85 151 3.5 7.0 0.00 0.19 0.19 68 1012.6
20260903180151 85 118 0.9 1.7 0.00 0.19 0.19 68 1012.7
20260903175650 86 170 0.0 0.0 0.00 0.19 0.19 66 1012.9
20260903175144 85 148 0.0 0.0 0.00 0.19 0.19 68 1012.9
20260903174639 84 167 0.0 0.0 0.00 0.19 0.19 69 1012.8
20260903174134 84 203 0.0 0.0 0.00 0.19 0.19 69 1013.0
20260903173629 84 200 0.0 0.0 0.00 0.19 0.19 70 1013.1
20260903173125 83 158 0.0 0.0 0.00 0.19 0.19 70 1013.0
20260903172619 84 188 0.0 0.0 0.00 0.19 0.19 71 1013.0
20260903172115 84 112 0.0 0.0 0.00 0.19 0.19 70 1013.1
20260903171615 83 169 1.7 2.6 0.00 0.19 0.19 72 1013.4
20260903171111 84 153 2.6 6.1 0.00 0.19 0.19 70 1013.3
20260903170609 83 121 0.0 0.9 0.00 0.19 0.19 72 1013.4
20260903170105 81 92 0.0 0.0 0.00 0.19 0.19 74 1013.5
20260903165603 81 194 1.7 2.6 0.00 0.19 0.19 74 1013.5
20260903165058 82 156 0.9 2.6 0.00 0.19 0.19 72 1013.6
20260903164553 82 125 0.0 0.0 0.00 0.19 0.19 73 1013.9
20260903164048 81 204 1.7 6.1 0.00 0.19 0.19 74 1013.7
20260903163543 82 91 3.5 9.6 0.00 0.19 0.19 73 1013.9
20260903163039 82 145 1.7 3.5 0.00 0.19 0.19 74 1013.8
20260903162535 82 122 3.5 9.6 0.00 0.19 0.19 73 1013.9
20260903162031 82 72 4.3 7.0 0.00 0.19 0.19 73 1014.0
20260903161526 82 312 0.9 3.5 0.00 0.19 0.19 74 1013.9
20260903161022 81 129 0.0 0.0 0.00 0.19 0.19 74 1013.7
20260903160521 81 144 0.9 3.5 0.00 0.19 0.19 74 1014.1
20260903160015 80 94 2.6 6.1 0.00 0.19 0.19 75 1014.2
20260903155509 79 165 1.7 3.5 0.00 0.19 0.19 76 1013.9
20260903155005 79 132 0.9 2.6 0.00 0.19 0.19 78 1014.3
20260903154500 78 129 1.7 5.2 0.00 0.19 0.19 78 1014.4
20260903153955 78 109 3.5 7.0 0.00 0.19 0.19 79 1014.5
20260903153451 79 152 0.9 1.7 0.00 0.19 0.19 79 1014.5
20260903152947 78 140 1.7 6.1 0.00 0.19 0.19 81 1014.3
20260903152442 77 1 0.0 0.0 0.00 0.19 0.19 83 1014.5
20260903151938 77 124 0.0 0.0 0.00 0.19 0.19 83 1014.4
20260903151432 77 110 2.6 7.0 0.00 0.19 0.19 83 1014.6
20260903150927 77 105 2.6 5.2 0.00 0.19 0.19 83 1014.2
20260903150416 77 127 0.0 1.7 0.00 0.19 0.19 83 1014.2
20260903145911 77 145 0.0 0.9 0.00 0.19 0.19 85 1014.4
20260903145406 77 204 0.9 5.2 0.00 0.19 0.19 84 1014.7
20260903144906 77 16 0.0 0.0 0.00 0.19 0.19 84 1014.4
20260903144400 77 69 0.0 0.0 0.00 0.19 0.19 85 1014.2
20260903143855 76 234 0.0 0.0 0.00 0.19 0.19 87 1014.3
20260903143353 76 12 0.0 0.0 0.00 0.19 0.19 88 1014.1
20260903142848 76 168 1.7 5.2 0.00 0.19 0.19 88 1014.5
20260903142344 76 111 2.6 6.1 0.00 0.19 0.19 87 1014.3
20260903141840 75 318 0.0 0.0 0.00 0.19 0.19 89 1014.6
20260903141335 75 167 0.0 0.0 0.00 0.19 0.19 89 1014.3
20260903140830 75 132 0.0 0.0 0.00 0.19 0.19 89 1014.2
20260903140325 74 121 0.0 0.0 0.00 0.19 0.19 90 1014.5
20260903135821 73 104 0.0 0.0 0.00 0.19 0.19 93 1014.6
20260903135316 73 106 0.0 0.0 0.00 0.19 0.19 93 1014.8
20260903134815 73 131 0.0 0.0 0.00 0.19 0.19 93 1014.4
20260903134311 73 48 0.0 0.0 0.00 0.19 0.19 93 1014.7
20260903133808 73 82 0.0 0.0 0.00 0.19 0.19 93 1014.7
20260903133304 73 85 0.0 0.0 0.00 0.19 0.19 92 1014.8
20260903132804 72 92 0.0 0.0 0.00 0.19 0.19 94 1014.7
20260903132300 72 12 0.0 0.0 0.00 0.19 0.19 94 1014.8
20260903131754 72 104 0.0 0.0 0.00 0.19 0.19 94 1014.8
20260903131253 72 48 0.0 0.0 0.00 0.19 0.19 95 1014.3
20260903130748 71 96 0.0 0.0 0.00 0.19 0.19 95 1014.5
20260903130243 72 49 0.0 0.0 0.00 0.19 0.19 94 1014.8
20260903125741 72 109 0.0 0.0 0.00 0.19 0.19 94 1014.6
20260903125237 72 107 0.0 0.0 0.00 0.19 0.19 94 1014.8
20260903124736 72 121 0.0 0.0 0.00 0.19 0.19 94 1014.8
20260903124232 72 109 0.0 0.0 0.00 0.19 0.19 94 1014.6
20260903123730 71 137 0.0 0.0 0.00 0.19 0.19 95 1015.0
20260903123230 71 119 0.0 0.0 0.00 0.19 0.19 95 1014.9
20260903122728 71 80 0.0 0.0 0.00 0.19 0.19 96 1014.5
20260903122224 71 95 0.0 0.0 0.00 0.19 0.19 96 1014.5
20260903121722 71 77 0.0 0.0 0.00 0.19 0.19 97 1014.6
20260903121218 71 80 0.0 0.0 0.00 0.19 0.19 97 1014.6
20260903120718 71 99 0.0 0.0 0.00 0.19 0.19 96 1014.8
20260903120212 71 86 0.0 0.0 0.00 0.19 0.19 96 1014.7
20260903115711 71 139 0.0 0.0 0.00 0.19 0.19 96 1014.8
20260903115206 71 150 0.0 0.0 0.00 0.19 0.19 97 1015.0
20260903114701 71 127 0.0 0.0 0.00 0.19 0.19 97 1014.9
20260903114155 70 106 0.0 0.0 0.00 0.19 0.19 97 1014.7
20260903113651 70 127 0.0 0.0 0.00 0.19 0.19 98 1014.8
20260903113147 70 144 0.0 0.0 0.00 0.19 0.19 99 1015.1
20260903112644 69 130 0.0 0.0 0.00 0.19 0.19 99 1014.9
20260903112143 69 140 0.0 0.0 0.00 0.19 0.19 99 1014.6
20260903111642 69 133 0.0 0.0 0.00 0.19 0.19 99 1014.7
20260903111138 69 150 0.0 0.0 0.00 0.19 0.19 99 1014.6
20260903110634 69 120 0.0 0.0 0.00 0.19 0.19 99 1014.7
20260903110130 69 157 0.0 0.0 0.00 0.19 0.19 99 1014.7
20260903105624 69 112 0.0 0.0 0.00 0.19 0.19 99 1014.8
20260903105114 69 160 0.0 0.0 0.00 0.19 0.19 99 1014.8
20260903104613 69 130 0.0 0.0 0.00 0.19 0.19 99 1014.5
20260903104103 69 97 0.0 0.0 0.00 0.19 0.19 99 1014.7
20260903103559 69 71 0.0 0.0 0.00 0.19 0.19 99 1014.7
20260903103055 69 92 0.0 0.0 0.00 0.19 0.19 99 1014.8
20260903102550 69 132 0.0 0.0 0.00 0.19 0.19 99 1014.7
20260903102049 69 153 0.0 0.0 0.00 0.19 0.19 99 1014.6
20260903101544 69 137 0.0 0.0 0.00 0.19 0.19 99 1014.7
20260903101040 69 70 0.0 0.0 0.00 0.19 0.19 99 1014.7
20260903100539 69 101 0.0 0.0 0.00 0.19 0.19 99 1014.9
20260903100038 69 145 0.0 0.0 0.00 0.19 0.19 99 1015.0
20260903095536 69 119 0.0 0.0 0.00 0.19 0.19 99 1014.7
20260903095031 69 63 0.0 0.0 0.00 0.19 0.19 99 1014.7
20260903094526 69 171 0.0 0.0 0.00 0.19 0.19 99 1014.6
20260903094022 69 101 0.0 0.0 0.00 0.19 0.19 99 1014.4
20260903093522 69 164 0.0 0.0 0.00 0.19 0.19 99 1014.3
20260903093017 69 178 0.0 0.0 0.00 0.19 0.19 99 1014.6
20260903092516 69 97 0.0 0.0 0.00 0.19 0.19 99 1014.5
20260903092011 69 87 0.0 0.0 0.00 0.19 0.19 99 1014.4
20260903091509 69 120 0.0 0.0 0.00 0.19 0.19 99 1014.2
20260903091003 69 111 0.0 0.0 0.00 0.19 0.19 99 1014.0
20260903090459 69 109 0.0 0.0 0.00 0.19 0.19 99 1014.3
20260903085957 69 169 0.0 0.0 0.00 0.19 0.19 99 1014.4
20260903085456 69 118 0.0 0.0 0.00 0.19 0.19 99 1014.1
20260903084952 69 127 0.0 0.0 0.00 0.19 0.19 99 1014.1
20260903084449 69 103 0.0 0.0 0.00 0.19 0.19 99 1013.7
20260903083944 69 63 0.0 0.0 0.00 0.19 0.19 99 1014.7
20260903083441 69 125 0.0 0.0 0.05 0.19 0.19 99 1015.2
20260903082940 69 64 0.0 0.0 0.05 0.19 0.19 99 1015.5
20260903082435 69 95 0.0 0.0 0.00 0.18 0.18 99 1015.5
20260903081931 69 79 0.0 0.0 0.00 0.18 0.18 99 1015.6
20260903081426 69 155 0.0 0.0 0.00 0.18 0.18 99 1015.5
20260903080922 69 105 0.0 0.0 0.00 0.18 0.18 99 1015.5
20260903080418 69 93 0.0 0.0 0.00 0.18 0.18 99 1015.6
20260903075913 69 141 0.0 0.0 0.00 0.18 0.18 99 1015.3
20260903075409 69 79 0.0 0.0 0.00 0.18 0.18 99 1015.0
20260903074903 69 102 0.0 0.0 0.00 0.18 0.18 99 1015.0
20260903074357 69 96 0.0 0.0 0.00 0.18 0.18 99 1014.8
20260903073852 69 100 0.0 0.0 0.07 0.18 0.18 99 1015.0
20260903073346 69 173 0.0 0.0 0.07 0.18 0.18 99 1015.1
20260903072843 69 88 0.0 0.0 0.05 0.17 0.17 99 1015.0
20260903072339 69 103 0.0 0.0 0.12 0.17 0.17 99 1015.2
20260903071835 69 173 0.0 0.0 0.12 0.16 0.16 99 1015.2
20260903071331 69 110 0.0 0.0 0.12 0.15 0.15 99 1015.4
20260903070826 69 95 0.0 0.0 0.12 0.14 0.14 99 1015.8
20260903070322 69 85 0.0 0.0 0.12 0.13 0.13 99 1015.9
20260903065821 69 111 0.0 0.0 0.12 0.12 0.12 99 1016.2
20260903065315 69 123 0.0 0.0 0.12 0.11 0.11 99 1016.4
20260903064814 69 99 0.0 0.0 0.07 0.10 0.10 99 1016.1
20260903064310 69 84 0.0 0.0 0.00 0.09 0.09 99 1016.2
20260903063806 69 120 0.0 0.0 0.05 0.09 0.09 99 1016.0
20260903063300 69 90 0.0 0.0 0.05 0.09 0.09 99 1016.0
20260903062751 69 107 0.0 0.0 0.00 0.08 0.08 99 1015.9
20260903062250 69 123 0.0 0.0 0.00 0.08 0.08 99 1015.7
20260903061747 69 119 0.0 0.0 0.00 0.08 0.08 99 1015.9
20260903061245 69 117 0.0 0.0 0.00 0.08 0.08 99 1015.9
20260903060741 69 135 0.0 0.0 0.00 0.08 0.08 99 1015.8
20260903060241 69 93 0.0 0.0 0.00 0.08 0.08 99 1015.8
20260903055738 68 74 0.0 0.0 0.07 0.08 0.08 99 1015.9
20260903055237 68 117 0.0 0.0 0.07 0.08 0.08 99 1016.1
20260903054732 68 77 0.0 0.0 0.07 0.07 0.07 99 1016.0
20260903054227 69 80 0.0 0.0 0.12 0.07 0.07 99 1016.6
20260903053724 69 82 0.0 0.0 0.05 0.06 0.06 99 1016.6
20260903053224 69 68 0.0 0.0 0.00 0.05 0.05 99 1016.6
20260903052720 69 82 0.0 0.0 0.00 0.05 0.05 99 1017.0
20260903052215 69 119 0.0 0.0 0.07 0.05 0.05 99 1017.0
20260903051710 69 133 0.0 0.0 0.12 0.05 0.05 99 1017.2
20260903051206 69 132 0.0 0.0 0.17 0.04 0.04 99 1017.8
20260903050701 69 176 0.0 0.0 0.17 0.04 0.04 99 1017.9
20260903050200 70 196 0.0 0.0 0.05 0.02 0.02 98 1018.4
20260903045655 70 180 0.0 0.0 0.00 0.01 0.01 97 1018.3
20260903045152 70 196 0.0 0.0 0.00 0.01 0.01 98 1017.9
20260903044648 70 151 0.0 0.0 0.07 0.01 0.01 97 1017.6
20260903044143 70 104 0.0 0.0 0.07 0.01 0.01 96 1017.5
20260903043640 71 94 0.0 0.0 0.00 0.00 0.00 96 1017.7
20260903043139 71 98 0.0 0.0 0.00 0.00 0.00 96 1017.8
20260903042638 71 129 0.0 0.0 0.00 0.00 0.00 95 1017.9
20260903042133 71 93 0.0 0.0 0.00 0.00 0.00 92 1018.0
20260903041630 71 136 0.0 0.0 0.00 0.00 0.00 95 1017.8
20260903041126 70 128 0.0 0.0 0.00 0.00 0.00 93 1017.9
20260903040624 70 1 0.0 0.0 0.00 0.00 0.00 96 1017.6
20260903040121 70 1 0.0 0.0 0.00 0.00 0.00 96 1017.5
20260903035616 70 5 0.0 0.0 0.00 0.00 0.00 96 1017.7
20260903035112 70 102 0.0 0.0 0.00 0.00 0.00 96 1017.5
20260903034606 70 245 0.0 0.0 0.00 0.00 0.00 96 1017.7
20260903034101 70 57 0.0 0.0 0.00 0.00 0.00 96 1017.6
20260903033557 70 73 0.0 0.0 0.00 0.00 0.00 96 1017.4
20260903033052 70 307 0.0 0.0 0.00 0.00 0.00 95 1017.7